This demonstration page uses our WeatherBlox Daily Observations layout. Learn more.

Left ArrowRight Arrow

39.51506, -84.39828

Hourly Observations for August 24, 2021

Temp ( °F °C ) Dew Point ( °F °C ) Humidity (%) Winds ( mph kmh ) Pressure ( in mb ) Visibility ( mi km ) Precip ( " mm )
12:15 am 00:15 undefined N/A N/A N/A undefined N/A N/A N/A N/A
12:35 am 00:35 undefined N/A N/A N/A undefined N/A N/A N/A N/A
12:55 am 00:55 undefined N/A N/A N/A undefined N/A N/A N/A N/A
1:15 am 01:15 undefined N/A N/A N/A undefined N/A N/A N/A N/A
1:35 am 01:35 undefined N/A N/A N/A undefined N/A N/A N/A N/A
1:55 am 01:55 undefined N/A N/A N/A undefined N/A N/A N/A N/A
2:15 am 02:15 undefined N/A N/A N/A undefined N/A N/A N/A N/A
2:35 am 02:35 undefined N/A N/A N/A undefined N/A N/A N/A N/A
2:55 am 02:55 undefined N/A N/A N/A undefined N/A N/A N/A N/A
3:15 am 03:15 undefined N/A N/A N/A undefined N/A N/A N/A N/A
3:35 am 03:35 undefined N/A N/A N/A undefined N/A N/A N/A N/A
3:55 am 03:55 undefined N/A N/A N/A undefined N/A N/A N/A N/A
4:15 am 04:15 undefined N/A N/A N/A undefined N/A N/A N/A N/A
4:35 am 04:35 undefined N/A N/A N/A undefined N/A N/A N/A N/A
4:55 am 04:55 undefined N/A N/A N/A undefined N/A N/A N/A N/A
5:15 am 05:15 undefined N/A N/A N/A undefined N/A N/A N/A N/A
5:35 am 05:35 undefined N/A N/A N/A undefined N/A N/A N/A N/A
5:55 am 05:55 undefined N/A N/A N/A undefined N/A N/A N/A N/A
6:15 am 06:15 undefined N/A N/A N/A undefined N/A N/A N/A N/A
6:35 am 06:35 undefined N/A N/A N/A undefined N/A N/A N/A N/A
6:55 am 06:55 undefined N/A N/A N/A undefined N/A N/A N/A N/A
7:15 am 07:15 undefined N/A N/A N/A undefined N/A N/A N/A N/A
7:35 am 07:35 undefined N/A N/A N/A undefined N/A N/A N/A N/A
7:55 am 07:55 undefined N/A N/A N/A undefined N/A N/A N/A N/A
8:15 am 08:15 undefined N/A N/A N/A undefined N/A N/A N/A N/A
8:35 am 08:35 undefined N/A N/A N/A undefined N/A N/A N/A N/A
8:55 am 08:55 undefined N/A N/A N/A undefined N/A N/A N/A N/A
9:15 am 09:15 undefined N/A N/A N/A undefined N/A N/A N/A N/A
9:35 am 09:35 undefined N/A N/A N/A undefined N/A N/A N/A N/A
9:55 am 09:55 undefined N/A N/A N/A undefined N/A N/A N/A N/A
10:15 am 10:15 undefined N/A N/A N/A undefined N/A N/A N/A N/A
10:35 am 10:35 undefined N/A N/A N/A undefined N/A N/A N/A N/A
10:55 am 10:55 undefined N/A N/A N/A undefined N/A N/A N/A N/A
11:15 am 11:15 undefined N/A N/A N/A undefined N/A N/A N/A N/A
11:35 am 11:35 undefined N/A N/A N/A undefined N/A N/A N/A N/A
11:55 am 11:55 undefined N/A N/A N/A undefined N/A N/A N/A N/A
12:15 pm 12:15 undefined N/A N/A N/A undefined N/A N/A N/A N/A
12:35 pm 12:35 undefined N/A N/A N/A SE 5 7 N/A N/A N/A
12:55 pm 12:55 Sunny 90 32.2 71 21.4 53 53 ESE 3 6 30.03 1017 10 16 N/A
1:15 pm 13:15 Sunny 89 31.9 71 21.4 54 54 W 5 7 30.03 1017 10 16 N/A
1:35 pm 13:35 Sunny 90 32.3 71 21.6 53 53 WSW 9 15 30.03 1017 10 16 N/A
1:55 pm 13:55 Sunny 91 32.6 71 21.7 53 53 W 6 9 30.02 1016 10 16 N/A
2:15 pm 14:15 Sunny 91 32.8 71 21.6 52 52 SW 6 9 30.02 1016 10 16 N/A
2:35 pm 14:35 Sunny 92 33.3 71 21.8 51 51 WSW 8 13 30.00 1016 10 16 N/A
2:55 pm 14:55 Sunny 92 33.3 70 21.3 49 49 SW 5 7 30.00 1016 10 16 N/A
3:15 pm 15:15 Sunny 91 32.9 68 20.2 47 47 N N/A 30.01 1016 10 16 N/A
3:35 pm 15:35 Mostly Cloudy 93 33.9 70 21.3 48 48 WNW 6 9 29.99 1016 10 16 N/A
3:55 pm 15:55 Partly Cloudy 92 33.5 70 20.9 48 48 NNW 3 6 29.98 1015 10 16 N/A
4:15 pm 16:15 Partly Cloudy 93 33.7 70 21 47 47 NNE 6 9 29.98 1015 10 16 N/A
4:35 pm 16:35 Sunny 91 32.8 69 20.7 49 49 S 7 11 29.98 1015 10 16 N/A
4:55 pm 16:55 Sunny 93 34.1 69 20.7 45 45 SSW 3 6 29.97 1015 10 16 N/A
5:15 pm 17:15 Sunny 93 34.1 68 20.2 44 44 W 7 11 29.97 1015 10 16 N/A
5:35 pm 17:35 Sunny 93 33.7 68 19.8 44 44 SSW 5 7 29.97 1015 10 16 N/A
5:55 pm 17:55 Sunny 93 33.8 69 20.6 46 46 W 5 7 29.96 1015 10 16 N/A
6:15 pm 18:15 Sunny 92 33.6 68 20 45 45 W 6 9 29.96 1015 10 16 N/A
6:35 pm 18:35 Sunny 92 33.2 69 20.7 48 48 W 6 9 29.96 1015 10 16 N/A
6:55 pm 18:55 Sunny 91 33 69 20.3 47 47 WSW 7 11 29.97 1015 10 16 N/A
7:15 pm 19:15 Sunny 91 32.6 68 20.2 48 48 WSW 6 9 29.96 1014 10 16 N/A
7:35 pm 19:35 Sunny 89 31.4 71 21.8 57 57 WSW 5 7 29.96 1015 10 16 N/A
7:55 pm 19:55 Sunny 86 29.9 74 23.2 67 67 W 3 6 29.96 1015 10 16 N/A
8:15 pm 20:15 Sunny 83 28.1 74 23.6 77 77 NW 3 6 29.97 1015 10 16 N/A
8:35 pm 20:35 Clear 79 26.2 74 23.4 85 85 N N/A 29.98 1015 10 16 N/A
8:55 pm 20:55 Clear 79 26.1 75 24 88 88 ENE 3 6 29.99 1016 10 16 N/A
9:15 pm 21:15 Clear 78 25.4 74 23.3 88 88 NNE 3 6 30.00 1016 10 16 N/A
9:35 pm 21:35 Clear with Mist and Fog 76 24.5 73 23 91 91 N N/A 30.00 1016 10 16 N/A
9:55 pm 21:55 Clear 76 24.4 73 22.9 91 91 NNE 3 6 30.01 1016 10 16 N/A
10:15 pm 22:15 Clear 76 24.3 73 22.8 91 91 NNE 3 6 30.02 1017 10 16 N/A
10:35 pm 22:35 Clear 76 24.6 73 22.8 90 90 N N/A 30.03 1017 10 16 N/A
10:55 pm 22:55 Clear 74 23.3 73 22.9 98 98 N N/A 30.04 1017 10 16 N/A
11:15 pm 23:15 Clear 74 23.4 73 22.9 97 97 N 3 6 30.04 1017 10 16 N/A
11:35 pm 23:35 Clear 75 23.7 74 23.1 96 96 N N/A 30.05 1017 10 16 N/A
11:55 pm 23:55 Clear 73 23 73 23 100 100 N N/A 30.05 1018 10 16 N/A

Powered by AerisWeather